Weather reports worldwide

Advertisment
Aviemore, United Kingdom (3063): temperature & dewpoint: 11.11.2018 03:00:00 - 17.11.2018 03:00:00 (GMT)Aviemore, United Kingdom (3063): temperature -20cm & temperature -100cm: 11.11.2018 03:00:00 - 17.11.2018 03:00:00 (GMT)Aviemore, United Kingdom (3063): wind speed & gusts: 11.11.2018 03:00:00 - 17.11.2018 03:00:00 (GMT)Aviemore, United Kingdom (3063): wind direction: 11.11.2018 03:00:00 - 17.11.2018 03:00:00 (GMT)Aviemore, United Kingdom (3063): reduced air pressure: 11.11.2018 03:00:00 - 17.11.2018 03:00:00 (GMT)Aviemore, United Kingdom (3063): visibility: 11.11.2018 03:00:00 - 17.11.2018 03:00:00 (GMT)Aviemore, United Kingdom (3063): sunshine duration: 11.11.2018 03:00:00 - 17.11.2018 03:00:00 (GMT)Aviemore, United Kingdom (3063): precipitation: 11.11.2018 03:00:00 - 17.11.2018 03:00:00 (GMT)
Date & Time tt [°C] td [°C] tt -20cm [°C] tt -100cm [°C] ff [km/h] ff [kn] fx [km/h] fx [kn] dd ppp [hPa] vv [km] sd [min] rr [mm]
17.11.2018 03:00:00 5,5 5,1 - - 5 3 - - NNE 1028,1 9 0 0,0
17.11.2018 02:00:00 6,4 6,0 - - 8 4 - - NE 1028,1 11 0 0,0
17.11.2018 01:00:00 6,5 6,3 - - 8 4 - - N 1027,7 15 0 0,0
17.11.2018 00:00:00 5,6 5,4 - - 2 1 - - NW 1027,6 11 - 0,0
16.11.2018 23:00:00 5,0 4,4 - - 4 2 - - NE 1027,6 7 0 0,0
16.11.2018 22:00:00 7,0 6,4 - - 8 4 - - NE 1026,8 17 0 0,0
16.11.2018 21:00:00 8,6 6,9 - - 8 4 - - NNE 1026,3 21 0 0,0
16.11.2018 20:00:00 11,1 7,7 - - 9 5 - - SSW 1025,8 35 0 0,0
16.11.2018 19:00:00 11,0 8,1 - - 9 5 - - SSW 1025,6 30 0 0,0
16.11.2018 18:00:00 11,1 7,6 - - 8 4 - - SW 1025,1 35 0 0,0
16.11.2018 17:00:00 11,2 7,5 - - 9 5 - - SW 1024,3 40 0 0,0
16.11.2018 16:00:00 11,8 8,0 - - 9 5 - - SW 1023,8 50 0 0,0
16.11.2018 15:00:00 11,9 8,2 - - 11 6 - - SW 1023,4 40 0 0,0
16.11.2018 14:00:00 11,6 8,2 - - 11 6 - - SSW 1023,1 50 12 0,0
16.11.2018 13:00:00 12,0 8,7 - - 16 9 - - SSW 1022,4 35 30 0,0
16.11.2018 12:00:00 7,2 4,6 - - 4 2 - - ENE 1022,8 35 60 0,0
16.11.2018 11:00:00 4,1 2,9 - - 4 2 - - ENE 1023,5 40 42 0,0
16.11.2018 10:00:00 3,1 3,1 - - 5 3 - - NNE 1023,5 35 48 0,0
16.11.2018 09:00:00 0,0 -0,1 7,7 8,2 4 2 - - NNW 1023,7 14 0 0,0
16.11.2018 08:00:00 0,0 -0,2 - - 2 1 - - NW 1023,3 17 0 0,0
16.11.2018 07:00:00 0,3 -0,3 - - 4 2 - - ENE 1022,4 20 0 0,0
16.11.2018 06:00:00 1,4 0,4 - - 2 1 - - N 1021,1 24 0 0,0
16.11.2018 05:00:00 3,9 2,0 - - 4 2 - - SW 1020,4 40 0 0,0
16.11.2018 04:00:00 4,9 2,9 - - 5 3 - - SW 1019,5 40 0 0,0
16.11.2018 03:00:00 4,5 2,9 - - 2 1 - - WSW 1018,9 40 0 0,0
16.11.2018 02:00:00 6,5 3,6 - - 8 4 - - W 1018,0 40 0 0,0
16.11.2018 01:00:00 7,8 4,7 - - 9 5 - - SSW 1017,4 50 0 0,0
16.11.2018 00:00:00 7,9 4,6 - - 8 4 - - SW 1016,2 50 - 0,0
15.11.2018 23:00:00 8,3 5,4 - - 9 5 - - SW 1014,9 50 0 0,0
15.11.2018 22:00:00 8,3 5,8 - - 11 6 - - SW 1013,6 50 0 0,0
15.11.2018 21:00:00 8,3 6,3 - - 16 9 - - SW 1012,4 45 0 0,0
15.11.2018 20:00:00 8,7 7,2 - - 13 7 52 28 SSW 1012,4 50 0 1,0
15.11.2018 19:00:00 9,1 7,4 - - 18 10 52 28 SW 1010,9 4,4 0 2,2
15.11.2018 18:00:00 12,4 7,6 - - 22 12 59 32 SSW 1008,2 50 0 0,0
15.11.2018 17:00:00 12,0 7,0 - - 28 15 55 30 SSW 1007,8 45 0 0,0
15.11.2018 16:00:00 11,2 5,9 - - 28 15 59 32 SSW 1008,1 50 0 0,0
15.11.2018 15:00:00 11,3 5,3 - - 28 15 59 32 SW 1007,8 50 42 0,0
15.11.2018 14:00:00 12,5 5,4 - - 26 14 54 29 SSW 1006,9 45 60 0,0
15.11.2018 13:00:00 12,2 8,3 - - 24 13 59 32 SW 1008,1 50 42 0,0
15.11.2018 12:00:00 12,0 8,6 - - 21 11 57 31 SSW 1008,8 40 6 0,0
15.11.2018 11:00:00 12,2 8,7 - - 18 10 - - SSW 1009,6 50 6 0,0
15.11.2018 10:00:00 12,3 9,1 - - 13 7 - - SSW 1010,6 50 6 0,0
15.11.2018 09:00:00 12,5 9,0 7,5 8,0 15 8 - - SSW 1010,2 50 0 0,0
15.11.2018 08:00:00 12,5 9,2 - - 13 7 - - WSW 1010,2 25 0 0,0
15.11.2018 07:00:00 12,7 9,3 - - 9 5 - - SW 1010,2 50 0 0,0
15.11.2018 06:00:00 12,8 9,2 - - 13 7 - - SSW 1009,9 50 0 0,0
15.11.2018 05:00:00 12,7 9,5 - - 13 7 - - SSW 1009,5 50 0 0,0
15.11.2018 04:00:00 12,8 9,5 - - 8 4 - - SW 1009,3 50 0 0,0
15.11.2018 03:00:00 12,9 9,5 - - 13 7 - - SSW 1008,5 45 0 0,0
15.11.2018 02:00:00 12,9 9,5 - - 13 7 - - SSW 1008,8 50 0 0,0
15.11.2018 01:00:00 13,1 9,4 - - 13 7 - - SSW 1008,9 50 0 0,0
15.11.2018 00:00:00 13,4 9,3 - - 13 7 - - S 1008,6 50 - 0,0
14.11.2018 23:00:00 13,3 9,5 - - 15 8 - - SSW 1008,6 50 0 0,0
14.11.2018 22:00:00 13,4 9,9 - - 15 8 - - SSW 1008,1 40 0 0,0
14.11.2018 21:00:00 13,4 10,1 - - 13 7 - - SSW 1007,6 40 0 0,0
14.11.2018 20:00:00 13,3 10,1 - - 13 7 46 25 SW 1007,3 40 0 0,0
14.11.2018 19:00:00 13,2 10,3 - - 18 10 46 25 SSW 1006,9 45 0 0,0
14.11.2018 18:00:00 13,4 10,4 - - 15 8 - - SSW 1006,9 45 0 0,0
14.11.2018 17:00:00 13,3 10,7 - - 13 7 - - SSW 1006,8 50 0 0,0
14.11.2018 16:00:00 12,7 11,2 - - 11 6 - - SW 1006,8 4,2 0 0,2
14.11.2018 15:00:00 12,9 11,4 - - 9 5 - - SW 1006,5 50 0 0,4
14.11.2018 14:00:00 13,5 11,0 - - 15 8 - - SSW 1005,6 4,6 0 0,0
14.11.2018 13:00:00 13,4 11,0 - - 15 8 - - SSW 1005,0 28 0 0,0
14.11.2018 12:00:00 12,4 10,7 - - 13 7 - - SW 1005,2 40 0 0,2
14.11.2018 11:00:00 12,7 9,4 - - 13 7 - - WSW 1004,9 45 0 0,0
14.11.2018 10:00:00 12,4 8,8 - - 11 6 - - SW 1004,9 50 0 0,0
14.11.2018 09:00:00 11,4 8,5 6,7 8,2 15 8 48 26 SSW 1004,7 40 0 0,0
14.11.2018 08:00:00 11,3 8,2 - - 18 10 - - SSW 1004,2 19 0 0,0
14.11.2018 07:00:00 12,1 7,5 - - 16 9 - - SSW 1004,9 50 0 0,0
14.11.2018 06:00:00 11,5 7,4 - - 11 6 - - SSW 1005,3 50 0 0,0
14.11.2018 05:00:00 11,0 7,3 - - 13 7 46 25 SW 1005,7 50 0 0,0
14.11.2018 04:00:00 11,1 7,3 - - 15 8 - - SSW 1006,6 50 0 0,0
14.11.2018 03:00:00 10,6 6,9 - - 15 8 - - SW 1006,8 50 0 0,0
14.11.2018 02:00:00 10,1 6,7 - - 16 9 52 28 SSW 1007,7 45 0 0,0
14.11.2018 01:00:00 10,2 6,8 - - 16 9 - - SSW 1008,6 50 0 0,0
14.11.2018 00:00:00 10,0 6,7 - - 18 10 46 25 SSW 1009,1 50 - 0,0
13.11.2018 23:00:00 9,6 6,0 - - 15 8 - - SW 1009,1 50 0 0,0
13.11.2018 22:00:00 9,3 5,0 - - 21 11 50 27 SSW 1009,2 50 0 0,0
13.11.2018 21:00:00 8,7 4,3 - - 16 9 52 28 SSW 1009,7 50 0 0,0
13.11.2018 20:00:00 8,3 4,5 - - 22 12 46 25 SSW 1009,6 50 0 0,0
13.11.2018 19:00:00 7,8 3,5 - - 9 5 - - SW 1011,1 50 0 0,0
13.11.2018 18:00:00 7,6 3,8 - - 13 7 - - SSW 1011,4 50 0 0,0
13.11.2018 17:00:00 6,9 3,3 - - 8 4 - - SSW 1011,1 50 0 0,0
13.11.2018 16:00:00 7,5 3,3 - - 8 4 - - SW 1010,9 50 6 0,0
13.11.2018 15:00:00 9,2 4,3 - - 9 5 - - SW 1010,3 50 30 0,0
13.11.2018 14:00:00 9,8 5,3 - - 8 4 - - S 1009,9 35 42 0,0
13.11.2018 13:00:00 8,9 5,1 - - 11 6 - - SW 1009,4 50 6 0,0
13.11.2018 12:00:00 8,7 7,0 - - 9 5 - - SSW 1008,5 50 0 0,0
13.11.2018 11:00:00 7,5 6,1 - - 8 4 - - SSW 1007,8 27 42 0,0
13.11.2018 10:00:00 7,2 6,4 - - 11 6 - - SSW 1006,6 50 24 0,0
13.11.2018 09:00:00 2,9 2,8 6,9 8,2 4 2 - - S 1006,0 40 0 0,0
13.11.2018 08:00:00 2,1 1,8 - - 2 1 - - NNW 1005,0 30 0 0,0
13.11.2018 07:00:00 2,5 2,4 - - 2 1 - - W 1003,8 40 0 0,0
13.11.2018 06:00:00 2,4 2,2 - - 4 2 - - W 1002,6 45 0 0,0
13.11.2018 05:00:00 1,7 1,4 - - 2 1 - - NE 1002,0 50 0 0,0
13.11.2018 04:00:00 2,0 1,9 - - 2 1 - - NNE 1001,0 40 0 0,0
13.11.2018 03:00:00 2,2 1,7 - - 2 1 - - WNW 1000,8 40 0 0,0
13.11.2018 02:00:00 3,2 2,1 - - 2 1 - - NE 1000,2 50 0 0,0
13.11.2018 01:00:00 5,9 2,9 - - 9 5 - - WSW 999,4 50 0 0,0
13.11.2018 00:00:00 5,7 3,2 - - 8 4 46 25 WSW 999,1 50 - 0,0
12.11.2018 23:00:00 6,7 5,3 - - 5 3 - - WSW 998,9 17 0 0,2
12.11.2018 22:00:00 7,2 4,9 - - 5 3 - - SW 998,6 50 0 0,0
12.11.2018 21:00:00 7,3 5,5 - - 5 3 - - SW 998,5 18 0 0,0
12.11.2018 20:00:00 6,0 4,7 - - 2 1 - - S 998,6 28 0 0,2
12.11.2018 19:00:00 7,5 5,9 - - 4 2 - - SW 998,3 50 0 0,0
12.11.2018 18:00:00 8,6 5,4 - - 8 4 - - SW 998,0 24 0 0,0
12.11.2018 17:00:00 8,4 5,2 - - 2 1 - - SW 997,6 50 0 0,0
12.11.2018 16:00:00 8,7 5,9 - - 4 2 - - W 997,4 45 0 0,0
12.11.2018 15:00:00 8,8 5,8 - - 9 5 - - SW 997,3 45 0 0,2
12.11.2018 14:00:00 9,8 5,1 - - 9 5 - - SSW 997,3 45 0 0,0
12.11.2018 13:00:00 10,3 5,9 - - 9 5 - - SSW 997,3 35 0 0,0
12.11.2018 12:00:00 10,0 5,2 - - 13 7 - - SSW 997,4 45 24 0,0
12.11.2018 11:00:00 11,0 5,8 - - 15 8 - - SSW 997,1 30 48 0,0
12.11.2018 10:00:00 10,1 5,6 - - 13 7 - - SSW 997,0 30 30 0,0
12.11.2018 09:00:00 8,6 5,5 6,7 8,2 8 4 - - SW 996,9 35 0 0,0
12.11.2018 08:00:00 8,0 5,4 - - 8 4 - - SW 996,6 45 0 0,0
12.11.2018 07:00:00 7,7 5,5 - - 5 3 - - WSW 996,3 45 0 0,0
12.11.2018 06:00:00 6,3 5,3 - - 5 3 - - W 995,9 45 0 0,0
12.11.2018 05:00:00 4,4 3,9 - - 4 2 - - W 995,8 40 0 0,0
12.11.2018 04:00:00 4,8 4,3 - - 4 2 - - W 995,2 28 0 0,0
12.11.2018 03:00:00 4,7 4,6 - - 4 2 - - NW 995,2 50 0 0,0
12.11.2018 02:00:00 4,2 4,0 - - 2 1 - - WNW 995,0 35 0 0,0
12.11.2018 01:00:00 3,4 3,3 - - 4 2 - - NNE 995,2 28 0 0,0
12.11.2018 00:00:00 2,2 2,0 - - 4 2 - - NNE 995,2 29 - 0,0
11.11.2018 23:00:00 2,3 2,2 - - 5 3 - - N 995,2 35 0 0,0
11.11.2018 22:00:00 2,3 2,0 - - 4 2 - - N 995,2 45 0 0,0
11.11.2018 21:00:00 2,7 1,3 - - 4 2 - - NNE 994,6 45 0 0,0
11.11.2018 20:00:00 2,1 1,6 - - 4 2 - - SE 994,2 45 0 0,0
11.11.2018 19:00:00 3,2 2,1 - - 4 2 - - WNW 993,7 45 0 0,0
11.11.2018 18:00:00 5,1 3,3 - - 8 4 - - SSW 992,7 50 0 0,0
11.11.2018 17:00:00 5,4 4,0 - - 5 3 - - SW 992,3 30 0 0,4
11.11.2018 16:00:00 6,2 4,9 - - 9 5 - - WSW 991,6 12 0 0,6
11.11.2018 15:00:00 5,9 4,3 - - 0 0 - - N 991,1 15 0 0,2
11.11.2018 14:00:00 5,7 4,4 - - 2 1 - - S 990,7 17 0 0,0
11.11.2018 13:00:00 4,8 3,9 - - 4 2 - - NE 991,0 50 0 0,0
11.11.2018 12:00:00 2,8 2,4 - - 2 1 - - NNE 991,2 45 0 0,0
11.11.2018 11:00:00 2,7 2,7 - - 2 1 - - E 991,1 30 18 0,0
11.11.2018 10:00:00 1,0 0,9 - - 2 1 - - ESE 991,3 12 6 0,0
11.11.2018 09:00:00 -0,3 -0,4 7,2 8,2 2 1 - - WSW 991,1 12 0 0,0
11.11.2018 08:00:00 -0,6 -0,9 - - 4 2 - - NNW 990,9 21 0 0,0
11.11.2018 07:00:00 -0,2 -0,6 - - 2 1 - - NNW 990,2 35 0 0,0
11.11.2018 06:00:00 1,0 0,7 - - 2 1 - - NNW 989,7 50 0 0,0
11.11.2018 05:00:00 2,2 1,9 - - 4 2 - - NNE 989,5 50 0 0,0
11.11.2018 04:00:00 1,5 0,5 - - 2 1 - - W 989,4 50 0 0,0
11.11.2018 03:00:00 3,9 2,2 - - 4 2 - - SE 989,0 50 0 0,0

tt = temperature
td = dewpoint
tt -20cm = temperature -20cm
tt -100cm = temperature -100cm
ff = wind speed
fx = gusts
dd = wind direction
ppp = reduced air pressure
vv = visibility
sd = sunshine duration
rr = precipitation

Next stations